Regional Weather Roundup
Issued by NWS Wakefield, VA

Home | Current Version | Previous Version | Text Only | Print | Product List | Glossary Off
Versions: 1 2 3 4 5 6 7 8 9 10 11 12 13 14 15 16 17 18 19 20 21 22 23 24 25 26 27

000
ASUS41 KAKQ 160315
RWRAKQ

REGIONAL WEATHER ROUNDUP
NATIONAL WEATHER SERVICE WAKEFIELD VA
1100 PM EDT SUN OCT 15 2017

Note: "fair" indicates few or no clouds below 12,000 feet with no
significant weather and/or obstructions to visibility. * = Denotes
station may not report precipitation (e.g., rain,snow,etc.),
thunder or fog.

VAZ042-051-052>054-056-160400-
NORTHERN VIRGINIA

CITY           SKY/WX    TMP DP  RH WIND       PRES   REMARKS
WASH NATIONAL  PTCLDY    72  66  81 S10       29.86F
DULLES         CLOUDY    71  67  87 S10       29.85F
FORT BELVOIR   CLEAR     72  65  78 S3        29.87S
QUANTICO       CLEAR     74  66  76 SW13      29.87F
FREDERICKSBRG* CLEAR     73  66  79 SW14      29.88F
STAFFORD*      PTCLDY    70  66  87 SW7       29.92F
WARRENTON      MOCLDY    73  64  73 S8        29.87S
CULPEPER*      CLOUDY    73  65  78 SW7       29.89S
MANASSAS*      MOCLDY    71  66  84 SW5       29.87F
LEESBURG*      CLOUDY    73  68  83 W8        29.87R
WINCHESTER     CLOUDY    72  59  64 NW20G25   29.91R
FRONT ROYAL*   CLOUDY    73  63  68 W5        29.89R
LURAY*         CLOUDY    72  63  73 W3        29.89R
$$

VAZ048-049-060>072-079>083-160400-
CENTRAL AND SOUTH CENTRAL VIRGINIA

CITY           SKY/WX    TMP DP  RH WIND       PRES   REMARKS
RICHMOND       CLEAR     72  66  81 SW12      29.93S
CHESTERFIELD*  NOT AVBL
PETERSBURG*    CLEAR     71  65  81 SW8       29.96S
HANOVER        CLEAR     74  66  76 S8        29.93F
TAPPAHANNOCK*  CLEAR     73  63  70 S6        29.93S
QUINTON*       FAIR      72  68  88 SW5       29.93S
CHARLOTTSVILLE PTCLDY    69  66  90 S7        29.90S
GORDONSVILLE*  CLEAR     70  66  89 SW7       29.90S
ORANGE*        PTCLDY    70  64  83 CALM      29.90S
LOUISA*        CLEAR     70  63  78 CALM      29.91F
BUMPASS*       FAIR      68  66  93 SW7       29.91F
FARMVILLE*     CLEAR     72  68  88 SW7       29.93F
CREWE*         FAIR      71  71 100 S5        29.95F
FORT PICKETT*  FAIR      70  70 100 SW10      29.97S
CHASE CITY*    FAIR      72  68  89 S3        29.98S
CLARKSVILLE*   FAIR      70  68  94 S10G17    29.97F
SOUTH HILL*    CLEAR     70  67  90 S10       30.04S
LAWRENCEVILLE* FAIR      71  66  84 S6        29.97F
EMPORIA*       CLEAR     70  64  83 S5        29.99F
$$

VAZ088>098-160400-
SOUTHEAST VIRGINIA

CITY           SKY/WX    TMP DP  RH WIND       PRES   REMARKS
NORFOLK        CLEAR     73  66  78 SW15      29.96S
VIRGINIA BEACH CLEAR     73  65  75 SW14      29.95F
NORFOLK NAVAL  CLEAR     73  65  75 SW12      29.97S
WEST POINT*    CLEAR     73  64  75 S9        29.94F
SALUDA*        FAIR      72  66  82 S12       29.93S
NEWPORT NEWS   CLEAR     72  64  76 SW12      29.96S
LANGLEY AFB    CLEAR     72  66  80 SW8       29.96S
FORT EUSTIS    CLEAR     71  65  79 S6        29.94S
WILLIAMSBURG*  CLEAR     73  64  73 SW6       29.96F
HR EXEC AP*    NOT AVBL
FRANKLIN*      CLEAR     70  63  77 SW7       29.98S
US460-WAKEFLD  CLEAR     71  64  78 SW5       29.97R
$$

VAZ020-022-025-037-045-160400-
WEST CENTRAL AND SOUTHWEST VIRGINIA

CITY           SKY/WX    TMP DP  RH WIND       PRES   REMARKS
STAUNTON*      CLOUDY    69  62  79 S6        29.94R
WAYNESBORO*    CLOUDY    71  63  75 S5        29.94S
HOT SPRINGS VA CLOUDY    65  54  67 W18       30.05R
LYNCHBURG      CLEAR     68  64  87 SW6       29.96F
DANVILLE       PTCLDY    69  67  93 SW6       29.98S
SOUTH BOSTON*  FAIR      71  67  88 S6        29.96F
MARTINSVILLE   PTCLDY    69  64  86 CALM      30.03R
ROANOKE        MOCLDY    73  63  70 SW7       29.99R
BLACKSBURG     CLOUDY    68  62  80 CALM      30.06R
DUBLIN*        CLOUDY    69  63  82 SW7       30.05R
MARION*        LGT RAIN  65  60  83 CALM      30.09R
HILLSVILLE*    CLOUDY    66  61  85 SW3       30.06S
RICHLANDS*     RAIN      64  54  69 W10       30.09R
WISE*          RAIN      59  59 100 NW9       30.14R
ABINGDON*      LGT RAIN  71  64  80 NW13G18   30.07R
$$

MDZ021>025-VAZ099-100-160400-
SOUTHERN MARYLAND AND THE DELMARVA PENINSULA

CITY           SKY/WX    TMP DP  RH WIND       PRES   REMARKS
PATUXENT RIVER CLEAR     73  66  78 SW12G21   29.89S
BAY BRIDGE APT PTCLDY    73  66  78 S12       29.86F
LEONARDTOWN    NOT AVBL
DOVER          CLEAR     72  66  83 S14       29.85S
GEORGETOWN     CLEAR     72  66  81 SW12      29.90S
EASTON         CLEAR     71  66  84 SW8       29.92S
CAMBRIDGE      CLEAR     72  66  83 VRB7      29.89S
SALISBURY      CLEAR     69  67  93 SW7       29.91S
OCEAN CITY     CLEAR     69  68  96 SW8       29.91F
WALLOPS ISLAND CLEAR     73  66  78 SW16G22   29.92F
ACCOMACK*      CLEAR     73  66  78 SW12G17   29.94S
$$

NCZ012>017-030>032-160400-
NORTH CENTRAL AND EASTERN NORTH CAROLINA

CITY           SKY/WX    TMP DP  RH WIND       PRES   REMARKS
ROANOKE RAPIDS FAIR      70  64  83 S8        30.00S
RALEIGH        CLEAR     72  66  81 SW10      30.02F
ELIZABETH CITY CLEAR     72  70  93 S14       29.99F
AHOSKIE*       CLEAR     68  64  84 CALM      30.01R
EDENTON*       CLEAR     73  69  88 S8        30.02S
CURRITUCK*     CLEAR     72  68  88 S5        30.00S
KILL DEVIL HLS CLEAR     71  71 100 S6        30.01S
MANTEO         CLEAR     72  70  93 SW14      30.03S
CAPE HATTERAS  PTCLDY    76  74  93 SW10      30.04F
TARBORO*       NOT AVBL
GOLDSBORO      CLEAR    N/A N/A N/A SW3       30.02F
WASHINGTON     CLEAR     70  68  93 SW3       30.03S
GREENVILLE     CLEAR     68  64  88 SW3       30.04F
NEW BERN       CLEAR     70  70 100 S6        30.04F
WILMINGTON     CLEAR     70  68  93 S3        30.04F
$$

VAZ048-160400-
ELSEWHERE

CITY           SKY/WX    TMP DP  RH WIND       PRES   REMARKS
HARRISBURG PA  LGT RAIN  68  66  93 NW13      29.86R
BALTIMORE      MOCLDY    72  66  81 SW8       29.84F
ANNAPOLIS      PTCLDY    74  68  81 VRB6      29.85F
ANDREWS AFB    CLEAR     70  64  81 SW12      29.86F
PHILADELPHIA   MOCLDY    69  65  86 SW10      29.84F
HENDERSON NC   CLEAR     68  63  85 S9        30.00F
GREENSBORO     PTCLDY    69  66  90 SW5       30.01S
ROCKY MOUNT    CLEAR     71  65  81 S8        30.02S
$$

VAZ100-160400-
MARINE

STATION/POSITION TIME  TEMP    WIND        PRES    WAVE   SWELL
                       AIR SEA DIR/SP/G            HT/PER HT/PER
                 (UTC) (F)     (DEG/KT/KT) (MB)    (FT/S) (FT/S)
BRANDYWINE LGT   0236   73     220/ 22/ 25 1011.7F
CAPE MAY NJ      0248   72 69  230/ 12/ 17 1011.2F
LEWES DE         0236   72 70  230/ 10/ 18 1011.6F
15NM E FENWICK I 0250   71 69  220/ 14/ 16 1013.1F   4/ 5   2/ 8
OCEAN-CITY-INLET 0248   71 70  240/  9/ 11 1013.1F
WACHAPREAGUE VA  0248   73 72  230/  6/ 11 1014.0R
THOMAS POINT MD  0300   73 70  210/ 17/ 19   N/A
GOOSES REEF MD   0250   74     260/ 16/ 19 1012.0F
COVE POINT MD    0248   74     230/ 17/ 21 1012.7R
SOLOMONS ISLAND  0236   74 72  220/ 16/ 18 1011.9S
BISHOPS HEAD MD  0248   73 71  200/ 16/ 19 1012.7F
PINEY POINT MD   0248          230/ 14/ 16   N/A
POTOMAC MD       0250   74     230/ 16/ 17 1012.2R
CAMBRIDGE MD     0248   72 71              1012.9R
LEWISETTA VA     0248   73 71  240/ 13/ 17 1012.7R
RAPPAHANNOCK LGT 0248          200/ 19/ 21 1014.3F
STINGRAY PT      0250   74     240/ 16/ 19 1013.8F
YORK RVR RNG VA  0248   74     240/ 16/ 18 1014.5F
YORKTOWN VA      0248   73 73  210/  8/ 12 1013.9F
JAMESTOWN VA     0250          210/ 12/ 14   N/A
DOMINION TERM VA 0248   73     220/ 13/ 15 1014.8R
KIPTOPEKE VA     0236      72  220/ 14/ 16   N/A
CAPE HENRY VA    0248   74     200/ 10/ 14   N/A
WILLOUBY STN VA  0236   74     210/ 16/ 20 1014.5R
S CRANEY ISL VA  0248   74     220/ 10/ 17 1014.4S
CAPE HENRY BUOY  0200      72                N/A     3/ 8
1ST LANDING BUOY 0250   75                 1014.4S
CAPE CHARLES BUO 0251      72                N/A     3/ 9
64NM E OF VA BCH 0250   72 71  210/ 19/ 23 1015.5F   5/ 9   3/ 9
DUCK PIER NC     0248   73 72  180/ 15/ 20 1015.4F
44100 DUCK FRF   0235      72                N/A     4/ 9
44056 DUCK FRF   0230      72                N/A     3/ 9
OREGON INLET NC  0236   75 76  200/ 18/ 20 1016.7F
HATTERAS NC      0248   76 78  210/ 11/ 15 1017.3F
DIAMOND SHLS NC  0250   78 77  210/ 12/ 16 1017.3F   3/ 9   3/ 9
CAPE LOOKOUT NC  0300   74     210/  4/  5 1017.1F
$$




USA.gov is the U.S. government's official web portal to all federal, state and local government web resources and services.